Regional Weather Roundup
Issued by NWS

Home | Current Version | Previous Version | Graphics & Text | Print | Product List | Glossary On
Versions: 1 2 3 4 5 6 7 8 9 10 11 12 13 14 15 16 17 18 19 20 21 22 23 24 25 26 27 28 29 30 31 32 33 34 35 36 37 38 39 40 41 42 43 44 45 46 47 48 49 50
000
ASUS43 KLOT 221400
RWRIL

ILLINOIS REGIONAL WEATHER ROUNDUP
NATIONAL WEATHER SERVICE CHICAGO/ROMEOVILLE IL
900 AM CDT TUE JUL 22 2014

NOTE: "FAIR" INDICATES FEW OR NO CLOUDS BELOW 12,000 FEET WITH NO
SIGNIFICANT WEATHER AND/OR OBSTRUCTIONS TO VISIBILITY.

* THESE STATIONS ARE NOT UNDER NWS QUALITY CONTROL. THEY ALSO MAY NOT
  REPORT WEATHER SUCH AS PRECIPITATION OR FOG.

ILZ001-002-007-009-015-016-024-221500-
NORTHWEST ILLINOIS

CITY           SKY/WX    TMP DP  RH WIND       PRES   REMARKS
MOLINE         PTSUNNY   78  69  73 SW8       29.97F HX  80
STERLING*      SUNNY     79  70  73 W7        30.00R HX  81
$$

ILZ003-004-008-010-011-017-018-221500-
NORTH CENTRAL ILLINOIS

CITY           SKY/WX    TMP DP  RH WIND       PRES   REMARKS
ROCKFORD       PTSUNNY   76  67  73 SW16      30.00S
$$

ILZ005-006-012>014-019>023-221500-
NORTHEAST ILLINOIS

CITY           SKY/WX    TMP DP  RH WIND       PRES   REMARKS
CHICAGO-OHARE  MOSUNNY   78  63  59 S12G20    30.00F HX  80
CHICAGO-MIDWAY SUNNY     79  66  64 S12G21    30.02F HX  81
AURORA         SUNNY     77  67  71 S13       30.01F
WAUKEGAN       MOSUNNY   78  66  66 SW15      29.99F HX  80
DUPAGE AIRPORT SUNNY     78  67  68 S12G21    30.01F HX  80
WHEELING       SUNNY     80  65  59 S14       30.01F HX  82
NORTHERLY ISL    N/A     77  63  61 S13         N/A
$$

LMZ740>746-221500-
SOUTHERN LAKE MICHIGAN

STATION/POSITION SKY/WX   TEMP    WIND        PRES    VSBY  WAVE
                          AIR SEA DIR/SP/G                  HT/PER
                          (F)     (DEG/KT/KT) (MB)    (MI)  (FT/S)
SOUTHERN BUOY              70 68  180/ 16/ 17 1016.5F
WAUKEGAN HARBOR            74     200/ 13/ 18 1016.6S
HARRISON CRIB              72     180/ 14/ 15   N/A
BURNHAM HARBOR             77     190/ 12/ 14   N/A
CALUMET HARBOR             75     190/  8/ 14 1015.8F
BURNS HARBOR               75     190/ 14/ 22 1017.9
MICHIGAN CITY              73     160/ 12/ 17   N/A
$$

ILZ025>027-034>036-040-047-049-050-058-095>099-221500-
WEST-CENTRAL ILLINOIS

CITY           SKY/WX    TMP DP  RH WIND       PRES   REMARKS
QUINCY         SUNNY     76  68  76 S12       30.04R
$$

ILZ028>032-037-038-041>044-048-051>054-059>061-221500-
CENTRAL ILLINOIS

CITY           SKY/WX    TMP DP  RH WIND       PRES   REMARKS
DECATUR        SUNNY     77  67  71 SW10      30.09F
PEORIA         SUNNY     78  67  68 SW14      30.03F HX  80
SPRINGFIELD    SUNNY     78  68  71 SW8       30.07F HX  80
TAYLORVILLE    NOT AVBL
$$

ILZ033-039-045-046-055>057-062-063-221500-
EAST-CENTRAL ILLINOIS

CITY           SKY/WX    TMP DP  RH WIND       PRES   REMARKS
CHAMPAIGN      SUNNY     75  68  78 SW8       30.09F
MATTOON        SUNNY     75  67  76 S7        30.10F
$$

ILZ079-100>102-221500-
SOUTHWEST ILLINOIS

CITY           SKY/WX    TMP DP  RH WIND       PRES   REMARKS
ALTON          SUNNY     75  72  88 S6        30.09S
BELLEVILLE     SUNNY     76  71  83 VRB2      30.08F
CAHOKIA*       SUNNY     77  66  68 SW6       30.08F
$$

ILZ064>066-069>071-074>076-080>082-084>086-088>090-092>094-221500-
SOUTH-CENTRAL ILLINOIS

CITY           SKY/WX    TMP DP  RH WIND       PRES   REMARKS
CARBONDALE     SUNNY     76  67  73 CALM      30.10S
MARION         SUNNY     77  70  78 CALM      30.11F
MT. VERNON     SUNNY     77  66  69 SW3       30.11S
$$

ILZ067-068-072-073-078-083-087-091-221500-
SOUTHEAST ILLINOIS

CITY           SKY/WX    TMP DP  RH WIND       PRES   REMARKS
$$

ABBREVIATIONS USED IN REMARKS
   TC - TEMPERATURE IN CELSIUS
  WCI - WIND CHILL INDEX
   HX - HEAT INDEX
  VSB - VISIBILITY
$$




USA.gov is the U.S. government's official web portal to all federal, state and local government web resources and services.